Weather History for KVUO - March, 2014

Change the Weather History Date:

Wednesday, March 5, 2014

  Actual Average Record
Temperature  
Mean Temperature 53 °F 46 °F  
Max Temperature 59 °F 55 °F 66 °F (1907)
Min Temperature 47 °F 37 °F 20 °F (1955)
Degree Days  
Heating Degree Days 12    
Month to date heating degree days 86  
Since 1 July heating degree days 3549  
Cooling Degree Days 0    
Month to date cooling degree days 0  
Year to date cooling degree days 0  
Growing Degree Days 2 (Base 50)    
Moisture  
Dew Point 51 °F    
Average Humidity 84    
Maximum Humidity 96    
Minimum Humidity 72    
Precipitation  
Precipitation 1.16 in 0.11 in 1.16 in (2014)
Month to date precipitation 1.90 0.57  
Year to date precipitation 8.79 10.10  
Sea Level Pressure  
Sea Level Pressure 29.65 in    
Wind  
Wind Speed 8 mph (SE)    
Max Wind Speed 16 mph    
Max Gust Speed 28 mph    
Visibility 6 miles    
Events Rain    
T = Trace of Precipitation, MM = Missing Value Source: NWS Daily Summary

Daily Weather History Graph

Daily Weather History Graph

Search for Another Location

Airport or City:

Trip Planner

Search our weather history database for the weather conditions in past years. The results will help you decide how hot, cold, wet, or windy it might be!

Date:

Astronomy

Mar. 05, 2014 Rise Set
Actual Time 6:41 AM PST 6:03 PM PST
Civil Twilight 6:12 AM PST 6:32 PM PST
Nautical Twilight 5:37 AM PST 7:07 PM PST
Astronomical Twilight 5:03 AM PST 7:41 PM PST
Moon 8:55 AM PST (3/5) 11:33 PM PST (3/5)
Length of Visible Light 12h 20m
Length of Day
11h 21m
Waxing Crescent, 24% of the Moon is Illuminated
Mar 5
Waxing Crescent
Mar 8
First Quarter
Mar 16
Full
Mar 23
Last Quarter
Mar 30
New

Hourly Weather History & Observations

Time (PST) Temp. Dew Point Humidity Pressure Visibility Wind Dir Wind Speed Gust Speed Precip Events Conditions
12:53 AM 48.0 °F 45.0 °F 89% 29.81 in 10.0 mi SE 10.4 mph - 0.01 in   Overcast
1:53 AM 48.0 °F 45.0 °F 89% 29.80 in 5.0 mi ESE 8.1 mph - 0.03 in Rain Light Rain
2:40 AM 50.0 °F 48.0 °F 93% 29.78 in 3.0 mi ESE 9.2 mph - 0.01 in Rain Light Rain
2:46 AM 51.1 °F 48.9 °F 92% 29.78 in 3.0 mi SE 11.5 mph - 0.01 in Rain Light Rain
2:53 AM 51.1 °F 48.9 °F 92% 29.78 in 4.0 mi SE 12.7 mph - 0.02 in   Overcast
3:39 AM 48.9 °F 46.9 °F 93% 29.76 in 4.0 mi ESE 9.2 mph - 0.06 in Rain Light Rain
3:53 AM 48.9 °F 46.9 °F 93% 29.76 in 7.0 mi ESE 9.2 mph - 0.08 in Rain Light Rain
4:03 AM 48.0 °F 46.9 °F 96% 29.76 in 7.0 mi ESE 10.4 mph - 0.01 in Rain Light Rain
4:53 AM 50.0 °F 48.0 °F 93% 29.74 in 5.0 mi ESE 10.4 mph - 0.12 in Rain Light Rain
5:00 AM 51.1 °F 48.9 °F 92% 29.74 in 4.0 mi ESE 8.1 mph - 0.02 in Rain Light Rain
5:53 AM 53.1 °F 51.1 °F 93% 29.74 in 10.0 mi ESE 9.2 mph - 0.08 in   Overcast
6:53 AM 55.0 °F 51.1 °F 86% 29.75 in 10.0 mi South 6.9 mph - 0.02 in Rain Light Rain
7:53 AM 55.9 °F 51.1 °F 84% 29.76 in 10.0 mi Variable 5.8 mph - 0.00 in   Overcast
8:04 AM 55.0 °F 52.0 °F 89% 29.76 in 10.0 mi SSE 5.8 mph - N/A   Overcast
8:20 AM 55.0 °F 52.0 °F 89% 29.76 in 10.0 mi SSE 6.9 mph - N/A   Overcast
8:43 AM 55.0 °F 52.0 °F 89% 29.77 in 10.0 mi SSE 5.8 mph - N/A   Overcast
8:53 AM 55.0 °F 52.0 °F 89% 29.77 in 10.0 mi SE 6.9 mph - N/A   Overcast
9:53 AM 55.9 °F 53.1 °F 90% 29.77 in 10.0 mi SSE 5.8 mph - 0.00 in   Overcast
10:53 AM 55.9 °F 54.0 °F 93% 29.76 in 5.0 mi SE 5.8 mph - 0.03 in Rain Light Rain
11:32 AM 55.9 °F 53.1 °F 90% 29.74 in 4.0 mi SSE 5.8 mph - 0.01 in Rain Light Rain
11:53 AM 57.0 °F 53.1 °F 87% 29.73 in 10.0 mi SSE 5.8 mph - 0.02 in Rain Light Rain
12:50 PM 57.2 °F 53.6 °F 88% 29.69 in 10.0 mi SE 6.9 mph - 0.06 in Rain Light Rain
12:53 PM 57.0 °F 53.1 °F 87% 29.69 in 10.0 mi SE 5.8 mph - 0.07 in Rain Light Rain
1:04 PM 55.9 °F 53.1 °F 90% 29.69 in 5.0 mi SSE 5.8 mph - 0.01 in Rain Light Rain
1:17 PM 55.9 °F 53.1 °F 90% 29.68 in 4.0 mi SE 5.8 mph - 0.04 in Rain Light Rain
1:53 PM 55.9 °F 54.0 °F 93% 29.65 in 3.0 mi ESE 4.6 mph - 0.10 in Rain Light Rain
2:32 PM 55.9 °F 54.0 °F 93% 29.61 in 8.0 mi ENE 4.6 mph - 0.03 in   Overcast
2:53 PM 55.9 °F 54.0 °F 93% 29.59 in 10.0 mi ENE 6.9 mph - 0.03 in   Overcast
3:02 PM 55.9 °F 54.0 °F 93% 29.58 in 10.0 mi East 8.1 mph - N/A   Overcast
3:09 PM 55.0 °F 54.0 °F 96% 29.59 in 4.0 mi SSW 6.9 mph - 0.02 in Rain Light Rain
3:18 PM 54.0 °F 53.1 °F 97% 29.59 in 1.8 mi Calm Calm - 0.05 in Rain Rain
3:27 PM 55.0 °F 53.1 °F 93% 29.58 in 2.0 mi SE 3.5 mph - 0.09 in Rain Rain
3:32 PM 55.0 °F 54.0 °F 96% 29.58 in 3.0 mi ESE 4.6 mph - 0.11 in Rain Light Rain
3:40 PM 54.0 °F 52.0 °F 93% 29.57 in 3.0 mi ESE 6.9 mph - 0.14 in Rain Rain
3:44 PM 53.1 °F 52.0 °F 96% 29.57 in 2.5 mi ESE 8.1 mph - 0.16 in Rain Rain
3:53 PM 52.0 °F 50.0 °F 93% 29.57 in 3.0 mi ESE 8.1 mph - 0.19 in Rain Rain
4:07 PM 52.0 °F 51.1 °F 97% 29.54 in 3.0 mi SE 6.9 mph - 0.04 in Rain Rain
4:42 PM 52.0 °F 50.0 °F 93% 29.52 in 2.0 mi SE 6.9 mph - 0.07 in Rain Light Rain
4:47 PM 51.8 °F 50.0 °F 94% 29.52 in 3.0 mi SE 9.2 mph - 0.09 in Rain Light Rain
4:53 PM 51.1 °F 50.0 °F 96% 29.52 in 3.0 mi ESE 11.5 mph - 0.11 in Rain Light Rain
5:08 PM 51.1 °F 50.0 °F 96% 29.49 in 4.0 mi ESE 10.4 mph - 0.06 in Rain Light Rain
5:18 PM 52.0 °F 50.0 °F 93% 29.48 in 5.0 mi ESE 10.4 mph - 0.07 in Rain Light Rain
5:49 PM 51.8 °F 50.0 °F 94% 29.50 in 5.0 mi ESE 9.2 mph - 0.13 in Rain Rain
5:53 PM 52.0 °F 50.0 °F 93% 29.50 in 6.0 mi ESE 10.4 mph - 0.14 in Rain Light Rain
6:17 PM 53.1 °F 51.1 °F 93% 29.50 in 7.0 mi SE 9.2 mph - 0.04 in Rain Light Rain
6:53 PM 57.9 °F 54.0 °F 87% 29.52 in 9.0 mi SW 8.1 mph - 0.08 in Rain Light Rain
7:09 PM 57.9 °F 54.0 °F 87% 29.53 in 7.0 mi Variable 5.8 mph - 0.03 in Rain Light Rain
7:26 PM 57.9 °F 53.1 °F 84% 29.54 in 10.0 mi WSW 6.9 mph 16.1 mph 0.03 in   Overcast
7:53 PM 57.9 °F 51.1 °F 78% 29.55 in 10.0 mi South 6.9 mph - 0.03 in   Mostly Cloudy
8:53 PM 57.0 °F 48.9 °F 74% 29.56 in 10.0 mi South 8.1 mph - N/A   Partly Cloudy
9:53 PM 57.0 °F 48.0 °F 72% 29.56 in 10.0 mi SSW 12.7 mph 18.4 mph N/A   Clear
10:53 PM 55.9 °F 46.9 °F 72% 29.60 in 10.0 mi SSW 10.4 mph 24.2 mph N/A   Partly Cloudy
11:53 PM 55.9 °F 45.0 °F 67% 29.62 in 10.0 mi South 10.4 mph - N/A   Mostly Cloudy